Wind_Speed
11 12 12 13 13 13 14 15 15 16 15 15 13 8 5 3 5 4 4 5 5 5 5 6 5 4 3 3 2 2 1 2 2 2 3 4 4 5 6 7 7 7 7 8 8 8 7 7 6
13 13 13 14 15 16 16 17 18 16 16 16 13 10 5 3 4 5 5 5 5 6 6 6 5 4 4 3 2 2 1 0 1 2 3 4 5 6 7 8 8 8 8 8 8 8 8 7 6
14 14 15 15 16 17 18 18 18 17 17 16 14 11 5 1 4 5 5 6 6 7 7 7 6 5 4 4 3 2 1 1 2 3 4 6 6 7 8 9 9 9 10 10 9 9 8 8 7
15 15 16 17 18 20 20 19 19 19 19 17 15 13 8 4 4 6 7 7 7 8 9 7 6 5 4 4 3 3 2 2 3 4 5 7 8 9 10 11 11 11 11 11 11 10 10 9 9
16 16 17 19 20 21 22 21 21 20 19 17 15 14 11 7 6 7 9 9 9 10 9 8 7 6 5 4 4 4 4 4 4 5 7 8 9 11 11 12 13 13 13 13 12 12 12 11 10
17 17 18 20 21 22 23 22 22 21 19 17 16 14 12 9 7 9 10 11 12 12 10 9 7 7 6 5 5 5 5 6 7 7 9 10 12 12 13 14 14 15 15 16 15 14 14 13 12
18 18 19 20 21 22 23 23 22 22 21 19 17 15 13 11 9 10 11 13 14 13 11 9 8 7 6 6 6 6 7 8 9 10 11 12 13 14 15 15 16 17 17 17 17 16 16 15 14
17 18 18 19 21 22 22 23 22 22 21 20 19 17 15 13 11 11 11 13 15 14 13 10 9 8 7 6 7 7 8 10 11 11 12 13 14 15 16 16 17 17 18 18 18 17 17 16 15
17 17 17 17 19 20 21 21 21 21 21 20 19 18 16 15 13 13 13 14 15 14 13 11 10 8 7 7 8 9 10 11 12 13 13 14 15 15 16 17 18 18 18 18 18 18 17 16 15
14 14 14 15 16 17 18 20 21 21 21 21 20 18 15 15 14 14 14 13 15 15 14 12 10 8 8 8 9 10 10 11 12 13 13 14 15 15 16 17 17 17 18 17 17 17 17 16 15
12 11 12 13 14 15 16 18 19 20 21 21 20 18 16 15 15 15 15 15 15 16 15 12 10 9 9 9 10 10 11 11 12 13 13 14 14 15 16 16 15 16 16 16 17 17 17 16 16
11 10 11 12 13 15 16 18 19 19 19 19 19 18 15 14 13 15 16 16 15 16 16 14 11 10 10 10 11 11 11 11 12 12 13 13 14 14 15 15 14 15 15 15 15 15 16 16 16
10 10 11 11 12 14 16 17 18 18 16 16 17 17 15 14 13 16 17 17 17 17 16 14 11 11 10 10 10 10 10 11 11 12 12 13 13 13 14 14 14 14 14 15 15 15 15 15 16
10 10 11 11 12 14 15 17 18 17 16 16 15 13 13 13 13 16 18 18 18 18 16 15 12 10 8 8 8 9 10 10 11 12 12 12 12 12 13 13 14 14 14 14 14 14 14 14 14
9 9 11 12 13 15 16 17 17 18 17 15 12 10 11 13 13 15 16 17 17 16 14 13 11 9 7 8 8 8 9 9 11 11 11 11 11 12 12 12 13 13 14 14 14 15 15 14 15
10 10 11 12 14 15 16 17 18 18 17 15 12 10 9 11 13 14 16 17 16 14 13 12 10 8 7 6 6 7 8 9 9 10 10 10 11 11 11 12 12 13 13 13 13 14 14 14 14
11 11 12 13 14 15 16 18 19 19 16 14 10 8 8 9 12 14 15 15 16 14 13 11 9 8 7 6 6 7 7 8 8 9 9 10 10 10 11 11 11 11 12 12 12 12 13 13 14
12 12 12 14 14 15 16 18 19 18 15 12 8 5 6 8 12 14 15 15 15 13 12 10 9 7 6 5 5 5 6 7 7 8 8 9 9 10 10 11 11 11 11 12 12 12 12 12 13
13 13 13 14 14 14 15 17 18 16 13 10 7 3 4 7 11 13 13 13 13 12 11 10 8 7 6 5 5 5 5 6 6 7 7 8 8 9 10 10 10 11 11 11 11 11 11 12 12
14 14 13 13 13 13 13 15 16 14 11 8 5 0 6 9 12 14 13 12 11 11 10 9 8 7 6 5 5 5 5 5 6 6 7 7 8 9 9 9 10 10 10 11 11 11 11 12 13
13 14 14 13 12 12 12 13 14 12 11 8 4 0 5 8 11 12 11 11 11 10 9 9 8 7 6 5 5 4 4 5 5 5 6 7 8 8 9 9 10 10 10 11 11 12 12 13 13
14 13 14 13 13 13 13 12 11 10 9 8 4 2 5 7 9 10 10 10 10 10 9 9 8 7 6 6 5 4 4 4 4 5 5 6 7 8 8 9 10 10 10 11 11 12 13 14 15
14 14 14 13 12 13 11 10 9 8 7 6 5 2 4 6 8 9 9 10 10 10 9 8 8 7 6 7 6 4 4 4 4 4 5 6 7 8 8 9 10 10 11 12 13 14 15 16 16
14 14 13 12 11 10 9 8 8 7 5 5 3 2 3 4 6 8 9 9 9 9 9 8 7 7 7 6 6 5 5 4 4 4 5 6 7 8 9 10 11 11 12 13 14 15 17 18 18
14 14 14 12 10 10 9 8 7 6 5 3 2 1 1 3 5 7 8 9 9 9 9 8 8 8 7 6 6 6 5 5 5 5 6 6 7 8 10 10 12 13 14 15 15 17 18 18 19
13 14 14 13 12 10 9 9 7 5 5 4 3 3 3 3 5 6 8 9 9 9 9 9 8 8 7 7 7 7 6 6 6 6 7 7 8 9 11 11 13 14 15 16 17 18 19 20 20
14 14 15 15 13 10 9 8 7 6 6 6 5 5 5 5 6 7 8 9 10 9 9 10 9 9 9 8 8 7 7 7 7 7 8 9 10 11 12 14 15 16 17 18 18 20 21 21 22
14 15 16 15 14 11 9 8 8 8 8 8 8 7 7 7 7 8 8 9 10 10 10 10 11 11 10 10 9 9 8 8 9 9 10 11 12 14 15 16 17 18 19 20 21 22 22 23 23
15 15 15 16 15 13 12 9 8 9 9 9 9 9 9 8 8 9 9 10 11 11 12 12 12 12 12 11 11 11 11 11 11 12 12 13 14 16 17 18 20 21 22 22 23 23 24 25 25
16 16 16 17 16 15 14 10 9 10 9 9 10 10 11 10 10 11 11 11 12 13 13 13 13 13 13 13 13 13 13 13 14 14 15 16 17 18 20 21 22 23 24 24 25 26 26 27 27
Wind_Direction
311 309 308 304 300 295 295 296 297 298 299 297 290 286 282 228 175 191 201 216 225 235 232 230 228 220 209 190 165 145 113 77 42 19 5 357 352 346 343 340 339 339 340 341 342 344 344 346 347
308 306 304 300 296 293 290 290 293 297 301 302 302 294 293 247 201 194 202 220 227 235 236 232 226 226 222 212 198 190 185 329 339 336 336 335 336 334 330 330 331 330 329 331 331 332 333 333 333
306 304 301 297 294 290 288 288 293 294 298 303 305 306 295 279 224 207 209 219 225 232 236 232 226 223 220 218 216 218 230 281 315 320 322 323 324 323 322 322 324 325 323 322 321 321 323 322 321
305 302 299 296 293 291 289 289 291 294 297 298 300 303 298 274 246 220 218 218 225 231 231 227 223 222 220 219 223 236 254 279 299 309 311 313 314 315 315 315 316 319 319 318 315 313 314 314 312
305 300 295 292 292 291 292 293 296 295 294 300 300 302 305 283 260 231 215 220 223 225 224 220 221 223 224 228 236 250 268 279 289 297 302 305 307 309 309 308 310 311 311 310 310 309 308 307 304
303 299 293 291 291 292 292 295 296 295 295 297 297 300 303 296 266 227 214 219 224 228 226 218 219 225 229 239 248 258 269 277 284 291 296 299 301 303 304 303 303 304 304 302 301 302 301 300 298
303 299 294 292 291 291 293 294 293 294 296 298 295 297 296 290 276 241 224 221 224 225 227 222 220 227 234 241 252 264 271 276 282 287 292 296 299 300 299 299 298 299 299 299 296 295 296 294 292
306 301 298 296 293 291 292 291 292 292 295 296 293 292 293 282 274 248 234 229 225 222 222 222 222 227 237 250 260 269 276 279 284 287 292 294 296 296 294 294 293 296 295 295 292 292 293 291 287
311 306 303 299 296 294 294 293 292 293 295 295 291 288 285 279 269 250 239 235 224 217 218 220 224 232 244 256 267 271 276 281 285 287 289 293 294 293 293 293 292 291 292 291 289 291 294 291 286
318 314 310 304 301 298 295 296 296 296 295 293 289 282 279 272 264 247 237 225 216 217 217 219 225 235 249 262 270 273 278 282 284 286 289 291 293 294 294 296 292 289 289 289 290 293 294 291 286
322 316 314 310 308 305 301 302 303 300 297 293 288 280 270 263 258 237 222 214 213 214 216 218 226 238 252 262 268 273 277 280 283 286 289 290 291 294 295 296 293 290 290 289 291 292 292 287 284
321 319 320 320 317 314 315 315 311 309 303 298 291 281 264 257 244 225 211 210 215 213 214 216 223 235 250 258 265 271 279 281 282 287 290 290 292 295 296 295 293 293 295 295 296 295 293 288 284
327 331 331 329 328 323 324 323 320 318 306 302 296 283 265 257 241 223 215 215 211 207 207 211 220 232 242 254 265 273 281 283 283 287 292 293 293 295 297 298 297 296 297 297 296 295 294 290 285
331 336 337 335 331 327 327 330 327 322 319 307 295 278 261 253 241 230 221 214 211 208 212 217 217 223 238 253 266 275 280 284 287 289 292 294 296 298 299 299 299 299 298 298 298 297 295 292 288
326 329 335 337 334 331 328 332 330 326 322 315 297 278 258 248 241 231 218 210 209 212 210 210 206 216 234 252 263 269 277 286 288 290 294 297 300 301 302 302 302 299 297 297 297 297 296 292 289
320 324 328 334 335 334 333 336 332 329 324 315 303 284 259 242 230 217 208 202 200 200 200 199 201 208 226 246 256 266 276 286 293 297 299 301 303 303 305 307 306 303 300 299 299 299 297 294 291
320 323 328 333 338 337 335 335 332 332 327 318 306 286 251 229 213 205 198 196 195 195 200 198 197 201 214 231 246 262 275 289 299 300 302 304 306 309 310 312 309 305 303 302 302 301 300 298 295
322 326 328 333 339 341 340 337 335 334 333 325 314 285 246 226 205 197 189 191 194 195 195 193 192 193 206 225 241 262 278 292 301 306 308 310 313 314 315 315 312 309 307 306 306 305 304 303 301
324 325 328 333 336 341 345 343 339 337 339 336 331 306 217 208 192 186 187 185 191 194 194 191 188 196 209 221 239 262 280 294 304 311 314 317 319 319 320 319 318 317 315 314 313 312 310 309 307
321 327 330 332 336 339 343 344 342 343 347 346 342 301 180 187 181 182 184 186 185 187 188 185 185 194 207 219 240 255 278 294 304 312 318 323 325 324 323 323 324 323 322 321 320 318 316 314 311
317 324 327 330 334 336 337 340 341 348 353 358 5 58 170 172 174 176 180 181 179 183 186 187 190 198 209 220 236 249 268 287 302 314 320 323 326 327 330 333 333 330 327 325 325 323 321 318 316
313 316 324 327 330 334 334 337 341 351 357 2 15 82 156 162 168 172 173 178 182 185 189 193 197 204 213 225 234 243 260 278 296 308 316 322 327 331 334 337 339 337 335 332 329 327 325 322 317
314 316 322 325 324 324 327 336 339 351 358 8 27 80 141 162 168 170 175 180 183 186 192 198 200 205 215 223 229 239 251 266 282 299 314 323 327 329 332 336 337 335 333 332 329 326 324 321 318
310 315 318 319 321 326 323 327 332 339 346 357 22 77 133 154 164 170 177 183 189 191 195 200 205 213 219 223 228 236 245 260 280 299 311 318 324 328 330 332 334 332 329 327 327 326 324 322 319
310 313 314 316 318 324 319 315 314 323 324 326 334 349 151 176 178 179 184 190 197 199 201 206 211 216 219 221 225 234 248 263 281 296 303 309 317 324 327 329 330 329 327 325 323 324 323 322 320
307 309 311 314 317 317 311 309 306 307 312 306 294 271 255 225 210 201 201 202 204 206 208 209 215 221 224 226 232 241 252 265 279 290 298 304 312 319 323 325 326 326 325 324 323 323 323 320 319
301 303 306 308 313 313 308 300 296 294 297 295 286 272 254 240 226 218 216 215 216 217 219 220 223 227 228 232 237 244 256 270 281 290 295 301 306 313 317 319 320 321 321 321 320 320 320 319 318
295 299 303 304 307 307 307 299 288 288 287 287 283 275 259 249 237 229 224 224 224 224 228 227 229 231 234 239 244 251 260 271 280 288 293 297 303 308 311 312 314 315 317 317 316 316 316 317 318
287 291 296 297 299 297 297 302 282 280 279 280 280 276 268 260 251 243 237 234 232 230 231 233 234 236 240 244 250 255 263 272 280 287 292 296 300 303 305 307 309 311 313 314 314 314 314 315 316
281 285 291 293 292 289 287 290 279 275 273 273 273 271 266 262 259 252 247 242 239 237 236 238 241 243 248 251 255 261 266 272 278 284 289 293 297 301 302 304 306 308 310 310 312 312 312 312 313
Height
5901 5900 5899 5899 5899 5897 5895 5893 5892 5891 5891 5890 5890 5889 5888 5888 5889 5892 5892 5891 5892 5893 5894 5894 5894 5895 5895 5895 5895 5895 5896 5896 5897 5898 5898 5899 5899 5899 5899 5899 5899 5899 5899 5899 5899 5898 5898 5898 5898
5899 5899 5898 5898 5896 5894 5893 5892 5891 5890 5890 5888 5888 5887 5886 5886 5886 5888 5889 5890 5891 5892 5893 5893 5894 5894 5894 5894 5894 5895 5895 5896 5897 5897 5897 5898 5898 5898 5898 5898 5898 5898 5898 5898 5898 5898 5897 5897 5897
5897 5897 5897 5895 5893 5892 5891 5890 5889 5889 5888 5887 5886 5886 5885 5885 5886 5887 5888 5889 5890 5891 5892 5892 5892 5893 5893 5893 5894 5894 5895 5895 5896 5896 5896 5897 5896 5896 5896 5896 5896 5896 5896 5896 5896 5896 5896 5896 5896
5896 5895 5894 5893 5890 5889 5888 5888 5888 5887 5886 5886 5886 5884 5884 5884 5885 5885 5887 5887 5889 5890 5890 5891 5891 5892 5892 5892 5893 5894 5894 5894 5895 5895 5895 5895 5895 5895 5895 5895 5895 5895 5895 5895 5895 5895 5895 5895 5895
5893 5892 5891 5889 5888 5886 5886 5886 5885 5885 5884 5884 5883 5882 5882 5883 5883 5883 5884 5886 5887 5888 5888 5889 5890 5890 5891 5891 5892 5893 5893 5894 5894 5894 5894 5894 5894 5894 5893 5893 5893 5893 5892 5892 5893 5893 5893 5893 5893
5891 5890 5888 5886 5885 5884 5883 5882 5882 5882 5881 5881 5880 5880 5880 5881 5881 5882 5882 5884 5885 5886 5887 5887 5888 5889 5890 5890 5891 5892 5892 5893 5893 5893 5893 5893 5893 5892 5892 5891 5891 5891 5890 5890 5890 5890 5890 5891 5891
5888 5887 5885 5884 5882 5881 5880 5879 5879 5878 5878 5878 5878 5878 5877 5878 5879 5880 5880 5881 5882 5884 5885 5885 5886 5887 5888 5889 5889 5890 5891 5891 5891 5891 5891 5891 5891 5890 5890 5889 5889 5888 5888 5887 5887 5887 5887 5888 5888
5885 5885 5882 5881 5880 5878 5877 5876 5875 5875 5874 5874 5874 5874 5874 5875 5876 5877 5878 5879 5880 5881 5882 5883 5884 5885 5886 5887 5887 5888 5889 5889 5889 5889 5889 5889 5888 5888 5887 5887 5886 5886 5885 5884 5884 5884 5884 5884 5885
5882 5882 5879 5878 5877 5876 5874 5872 5872 5871 5870 5870 5869 5869 5870 5871 5871 5873 5875 5876 5878 5879 5880 5881 5883 5883 5884 5885 5885 5886 5886 5887 5887 5887 5887 5886 5886 5885 5885 5884 5884 5883 5882 5882 5881 5881 5881 5881 5881
5880 5879 5878 5876 5875 5873 5871 5870 5869 5867 5866 5865 5864 5864 5865 5866 5867 5868 5870 5872 5874 5876 5878 5879 5880 5881 5882 5882 5883 5884 5884 5884 5884 5884 5884 5884 5884 5883 5882 5881 5881 5880 5880 5879 5879 5878 5878 5878 5878
5878 5877 5876 5874 5872 5871 5869 5867 5865 5863 5862 5861 5860 5859 5860 5861 5862 5863 5865 5868 5871 5872 5875 5877 5877 5878 5879 5880 5881 5881 5882 5882 5882 5882 5882 5881 5881 5880 5880 5879 5878 5878 5877 5877 5876 5876 5875 5875 5875
5878 5876 5874 5872 5871 5869 5867 5864 5862 5859 5858 5856 5855 5854 5854 5855 5857 5859 5862 5865 5867 5869 5872 5874 5875 5876 5877 5877 5878 5879 5879 5879 5879 5879 5879 5879 5878 5878 5877 5876 5876 5875 5875 5874 5874 5873 5873 5872 5872
5876 5875 5873 5871 5869 5866 5864 5862 5859 5856 5853 5851 5850 5849 5849 5850 5852 5855 5858 5861 5864 5866 5869 5870 5872 5873 5874 5875 5875 5876 5876 5877 5877 5877 5877 5876 5876 5876 5875 5874 5874 5873 5872 5872 5871 5871 5870 5870 5870
5875 5874 5872 5870 5867 5865 5862 5859 5856 5853 5850 5848 5846 5845 5845 5846 5848 5851 5854 5857 5859 5863 5865 5868 5869 5870 5871 5873 5873 5874 5874 5875 5875 5875 5875 5874 5874 5873 5873 5872 5871 5871 5870 5869 5869 5868 5868 5867 5867
5875 5873 5871 5868 5865 5862 5860 5857 5854 5850 5848 5845 5843 5842 5843 5843 5845 5847 5850 5853 5856 5859 5863 5865 5867 5868 5870 5871 5872 5872 5872 5873 5873 5873 5872 5872 5872 5871 5870 5870 5869 5868 5868 5867 5866 5866 5865 5865 5864
5874 5872 5870 5868 5864 5861 5859 5856 5852 5849 5845 5843 5841 5840 5840 5841 5842 5844 5847 5850 5854 5856 5860 5863 5864 5866 5868 5869 5870 5871 5871 5871 5871 5870 5870 5870 5870 5869 5868 5868 5867 5866 5865 5865 5864 5863 5863 5862 5862
5873 5872 5869 5867 5863 5860 5857 5853 5850 5846 5843 5841 5839 5838 5837 5838 5840 5842 5845 5848 5851 5855 5858 5860 5862 5864 5866 5868 5869 5869 5869 5869 5868 5869 5869 5868 5868 5867 5866 5865 5864 5864 5863 5862 5862 5861 5860 5859 5859
5872 5870 5868 5865 5862 5859 5855 5851 5848 5844 5841 5839 5837 5836 5836 5836 5838 5840 5843 5847 5850 5853 5856 5859 5861 5863 5865 5866 5867 5868 5868 5868 5867 5867 5867 5866 5866 5865 5864 5863 5862 5861 5861 5860 5859 5858 5858 5857 5856
5871 5869 5866 5863 5860 5858 5854 5850 5847 5843 5840 5838 5836 5835 5834 5835 5837 5840 5842 5846 5849 5852 5855 5858 5860 5862 5864 5865 5866 5866 5866 5866 5866 5866 5865 5865 5864 5863 5863 5862 5861 5860 5858 5857 5857 5856 5855 5854 5854
5869 5867 5864 5862 5859 5857 5854 5850 5846 5843 5840 5838 5836 5835 5834 5835 5837 5840 5843 5846 5849 5851 5854 5857 5859 5861 5862 5863 5864 5865 5865 5865 5865 5864 5864 5863 5862 5862 5861 5860 5859 5858 5857 5856 5855 5854 5853 5852 5851
5867 5865 5863 5861 5858 5856 5853 5851 5847 5844 5840 5838 5836 5835 5835 5837 5839 5841 5843 5846 5848 5851 5853 5856 5858 5859 5861 5862 5863 5863 5863 5864 5864 5863 5863 5862 5861 5861 5860 5859 5858 5856 5855 5854 5853 5852 5851 5850 5848
5865 5863 5861 5859 5857 5855 5853 5850 5848 5845 5842 5840 5838 5837 5837 5838 5840 5841 5843 5846 5848 5851 5853 5855 5856 5858 5859 5860 5861 5862 5862 5862 5862 5862 5861 5861 5860 5859 5858 5857 5856 5855 5854 5852 5851 5850 5848 5847 5846
5863 5861 5860 5858 5856 5855 5852 5850 5849 5846 5844 5842 5840 5839 5839 5840 5841 5842 5844 5846 5848 5850 5852 5854 5855 5856 5857 5859 5860 5860 5861 5861 5861 5861 5860 5859 5859 5858 5857 5855 5854 5853 5852 5850 5849 5847 5846 5844 5843
5861 5859 5858 5856 5855 5854 5851 5850 5849 5847 5846 5844 5843 5842 5842 5842 5843 5843 5844 5847 5848 5849 5851 5852 5854 5855 5856 5857 5858 5859 5859 5859 5859 5859 5858 5858 5857 5856 5855 5854 5852 5851 5849 5848 5846 5844 5842 5841 5839
5859 5858 5856 5855 5853 5852 5851 5849 5849 5847 5846 5845 5844 5843 5843 5843 5844 5844 5845 5846 5847 5849 5850 5851 5853 5854 5855 5855 5856 5857 5857 5857 5857 5857 5856 5856 5855 5854 5853 5851 5850 5848 5846 5845 5843 5841 5839 5837 5835
5856 5855 5855 5853 5852 5851 5849 5848 5848 5846 5846 5845 5845 5844 5843 5843 5843 5844 5844 5845 5846 5848 5849 5850 5851 5852 5853 5854 5854 5855 5855 5855 5855 5855 5854 5853 5853 5851 5850 5849 5847 5845 5843 5841 5839 5837 5835 5833 5831
5854 5853 5852 5851 5850 5849 5848 5848 5847 5846 5845 5845 5845 5844 5844 5843 5843 5843 5844 5844 5845 5846 5846 5847 5849 5850 5851 5851 5852 5852 5852 5853 5852 5852 5851 5850 5849 5848 5847 5845 5844 5842 5840 5838 5835 5833 5831 5828 5826
5851 5850 5849 5848 5847 5846 5846 5846 5846 5845 5844 5844 5843 5843 5843 5843 5842 5842 5842 5843 5843 5844 5845 5846 5847 5847 5848 5849 5849 5849 5849 5849 5849 5848 5848 5847 5846 5845 5843 5842 5840 5838 5836 5833 5831 5828 5826 5823 5821
5848 5847 5846 5845 5844 5844 5843 5846 5844 5843 5842 5842 5841 5841 5840 5840 5840 5840 5840 5840 5841 5842 5842 5843 5844 5845 5845 5845 5846 5846 5846 5846 5845 5845 5844 5843 5842 5840 5839 5837 5835 5833 5831 5828 5826 5823 5820 5818 5815
5843 5843 5843 5842 5841 5841 5841 5844 5841 5841 5840 5839 5839 5839 5838 5838 5838 5837 5837 5838 5838 5839 5839 5840 5841 5841 5842 5842 5842 5842 5842 5842 5841 5840 5839 5838 5837 5835 5834 5832 5830 5828 5825 5823 5820 5817 5814 5812 5809